Flag for United Kingdom Weather past 2 weeks in Kingston upon Hull, England, United Kingdom

48 °F

Scattered clouds.

Feels Like: 46 °F
Forecast: 38 / 51 °F
Wind: 6 mph from Southwest

Location: Humberside

Current Time: Nov 26, 2015 at 11:39:56 AM

Latest Report: Nov 26, 2015 at 10:50 AM

Visibility: N/A

Pressure: 30.09 "Hg

Humidity: 87%

Dew point: 45 °F

Location of Kingston upon HullLocation

Historic Weather in Kingston upon Hull — Graph


Kingston upon Hull temperature yesterday

Maximum temperature yesterday: 50 °F (at 1:20 PM)
Minimum temperature yesterday: 41 °F (at 1:20 AM)
Average temperature yesterday: 44 °F

Past Weeks' High & Low Weather Summary

High63 °F (Nov 15, 11:50 AM)100% (Nov 14, 3:50 PM)30.21 "Hg (Nov 14, 3:50 PM)
Low28 °F (Nov 22, 3:20 AM)50% (Nov 13, 1:50 PM)29.24 "Hg (Nov 17, 3:50 PM)
Average47 °F83%29.80 "Hg
* Reported Nov 11 10:20 AM — Nov 26 10:20 AM, Kingston upon Hull, Weather by CustomWeather, © 2015

Note: Actual official high and low records may vary slightly from our data, if they occured in-between our weather recording intervals... More about our weather records


Kingston upon Hull weather history for previous 24 hours

Time TempWeatherWind HumidityBarometerVisibility
10:20 AM
Thu, Nov 26
46 °FPassing clouds.5 mph93%30.09 "HgN/A
9:50 AM46 °FFog.6 mph87%30.07 "Hg6 mi
9:20 AM45 °FFog.3 mph93%30.07 "Hg6 mi
8:50 AM41 °FFog.5 mph100%30.07 "Hg2 mi
8:20 AM41 °FPassing clouds.6 mph100%30.07 "Hg4 mi
7:50 AM41 °FScattered clouds.7 mph100%30.07 "Hg4 mi
7:20 AM43 °FPassing clouds.8 mph93%30.07 "HgN/A
6:20 AM41 °FFog.5 mph100%30.04 "Hg3 mi
5:50 AM39 °FFog.No wind100%30.04 "Hg3 mi
5:20 AM39 °FFog.2 mph100%30.04 "Hg2 mi
4:50 AM41 °FQuite cool.5 mph93%30.01 "Hg4 mi
4:20 AM41 °FQuite cool.3 mph93%30.01 "HgN/A
3:50 AM39 °FChilly.5 mph93%30.01 "Hg5 mi
3:20 AM39 °FChilly.7 mph93%30.01 "HgN/A
2:50 AM39 °FChilly.8 mph100%30.01 "HgN/A
2:20 AM39 °FChilly.6 mph93%30.01 "HgN/A
1:50 AM37 °FChilly.5 mph93%30.01 "HgN/A
1:20 AM39 °FChilly.6 mph93%30.01 "HgN/A
12:20 AM41 °FQuite cool.9 mph87%29.98 "HgN/A
11:50 PM
Wed, Nov 25
43 °FQuite cool.7 mph87%29.98 "HgN/A
11:20 PM45 °FQuite cool.12 mph87%29.98 "HgN/A
10:50 PM45 °FQuite cool.13 mph81%29.98 "HgN/A
10:20 PM45 °FQuite cool.12 mph81%29.98 "HgN/A
9:50 PM45 °FQuite cool.10 mph81%29.98 "HgN/A
9:20 PM43 °FPassing clouds.10 mph87%29.95 "HgN/A
8:50 PM45 °FPassing clouds.12 mph81%29.95 "HgN/A
8:20 PM45 °FPassing clouds.10 mph81%29.95 "HgN/A
7:50 PM45 °FPassing clouds.8 mph81%29.95 "HgN/A
7:20 PM43 °FPassing clouds.8 mph81%29.95 "HgN/A
6:50 PM41 °FPassing clouds.5 mph81%29.92 "HgN/A
6:20 PM43 °FPassing clouds.7 mph76%29.92 "HgN/A
5:50 PM45 °FPassing clouds.5 mph71%29.92 "HgN/A
5:20 PM45 °FPassing clouds.7 mph71%29.92 "HgN/A
4:50 PM45 °FPassing clouds.8 mph71%29.89 "HgN/A
4:20 PM45 °FPassing clouds.10 mph71%29.89 "HgN/A
3:50 PM46 °FPassing clouds.8 mph71%29.89 "HgN/A
3:20 PM46 °FPassing clouds.12 mph71%29.86 "HgN/A
2:50 PM48 °FPassing clouds.13 mph66%29.86 "HgN/A
2:20 PM48 °FPassing clouds.13 mph71%29.83 "HgN/A
1:50 PM50 °FPassing clouds.14 mph67%29.83 "HgN/A
1:20 PM50 °FPassing clouds.14 mph71%29.83 "HgN/A
12:50 PM48 °FPassing clouds.15 mph76%29.83 "HgN/A
12:20 PM48 °FPassing clouds.14 mph76%29.83 "HgN/A
11:50 AM48 °FPassing clouds.14 mph76%29.83 "HgN/A
11:20 AM48 °FPassing clouds.15 mph76%29.83 "HgN/A
Weather by CustomWeather, © 2015

See weather overviewHow to use our weather pages